Regional Weather Roundup
Issued by NWS

Home | Current Version | Previous Version | Graphics & Text | Print | Product List | Glossary On
Versions: 1 2 3 4 5 6 7 8 9 10 11 12 13 14 15 16 17 18 19 20 21 22 23 24 25 26 27 28 29 30 31 32 33 34 35 36 37 38 39 40 41 42 43 44 45 46 47 48 49 50
000
ASUS45 KABQ 261710
RWRNM
WEATHER ROUNDUP FOR NEW MEXICO
NATIONAL WEATHER SERVICE ALBUQUERQUE NM
1000 AM MST FRI DEC 26 2014

NOTE: "FAIR" MEANS FEW OR NO CLOUDS BELOW 12,000 FEET AGL WITH NO
       SIGNIFICANT WEATHER OR OBSTRUCTIONS TO VISION.

      THIS PRODUCT IS RELEASED AS TWO VERSIONS.  ONE VERSION NEAR
      THE TOP OF THE HOUR CONTAINING PRELIMINARY DATA FROM ALBUQUERQUE
      AND OTHER STATIONS.  A FINAL VERSION WITH ADDITIONAL DATA IS
      ISSUED ABOUT 10 MINUTES AFTER THE HOUR.

NMZ501-503-504-510>518-261800-
NORTHWEST PLATEAU/NORTHCENTRAL MOUNTAINS

CITY           SKY/WX    TMP DP  RH WIND       PRES   REMARKS
FARMINGTON     FLURRIES  25  21  85 W16       29.79R WCI  12
LOS ALAMOS     CLOUDY    27  13  57 S13G22    29.77R WCI  16
SANTA FE       CLOUDY    27  23  85 S7        29.80R WCI  19
TAOS           MOSUNNY   25  21  86 CALM      29.76R
ANGEL FIRE     FLURRIES  21  17  84 S6        29.73S WCI  13

$$
NMZ402-403-502-505>509-261800-
WESTCENTRAL MOUNTAINS/SOUTHWEST MOUNTAINS

CITY           SKY/WX    TMP DP  RH WIND       PRES   REMARKS
GALLUP         MOSUNNY   19  14  81 SW13      29.85R WCI   6
GRANTS         CLOUDY    23  15  74 W10       29.86R WCI  12
SILVER CITY    SUNNY     34  16  47 NW30      29.91R WCI  20

$$
NMZ407-409-411-412-261800-
SOUTHERN DESERTS

CITY           SKY/WX    TMP DP  RH WIND       PRES   REMARKS
LORDSBURG      FAIR      37  19  48 NW16G23   29.96R WCI  28
DEMING         CLOUDY    36  23  59 W10       29.95R WCI  28
LAS CRUCES     CLOUDY    37  32  84 SW10      29.95S WCI  30
HOLLOMAN AFB   PTSUNNY   42  34  73 SW12      29.91R
ALAMOGORDO     PTSUNNY   39  32  75 S12       29.92R WCI  32
T OR C         SUNNY     43  10  26 W21G29    29.87R

$$
NMZ519>523-261800-
CENTRAL VALLEYS/CENTRAL HIGHLANDS

CITY           SKY/WX    TMP DP  RH WIND       PRES   REMARKS
ALBUQUERQUE    MOSUNNY   28  21  75 SW14      29.86R WCI  17
DOUBLE EAGLE   MOSUNNY   30  14  51 SW24G30   29.84R WCI  16
MORIARTY ARPT  FAIR      32  24  72 W7        29.82S WCI  26
CLINES CORNERS LGT SNOW  24  18  77 W7        29.78R WCI  16
BELEN          FAIR      32  21  62 W22       29.87R WCI  20
SOCORRO        FAIR      40   6  25 N12G18    29.88R WCI  33

$$
NMZ524>526-539-540-261800-
SOUTHCENTRAL MOUNTAINS

CITY           SKY/WX    TMP DP  RH WIND       PRES   REMARKS
RUIDOSO        NOT AVBL

$$
NMZ527>531-261800-
NORTHEAST HIGHLANDS/NORTHEAST PLAINS

CITY           SKY/WX    TMP DP  RH WIND       PRES   REMARKS
LAS VEGAS      HVY SNOW  24  22  91 SE10      29.79R VSB 1/4 WCI  14
RATON          CLOUDY    23  15  71 N10       29.82R WCI  12
CLAYTON        LGT SNOW  25  22  88 NE18      29.88S FOG     WCI  11

$$
NMZ532>537-261800-
EASTCENTRAL PLAINS

CITY           SKY/WX    TMP DP  RH WIND       PRES   REMARKS
TUCUMCARI      SNOW      30  27  88 NE10      29.88S VSB 1/2 WCI  21
CANNON AFB     NOT AVBL
CLOVIS AIRPORT CLOUDY    30  27  86 NE12      29.86S WCI  21

$$
NMZ028-029-538-261800-
SOUTHEAST PLAINS

CITY           SKY/WX    TMP DP  RH WIND       PRES   REMARKS
ROSWELL        CLOUDY    48  34  58 S13       29.86R
ARTESIA        CLOUDY    41  34  75 W6        29.93R
CARLSBAD       CLOUDY    54  34  46 W26G32    29.88R
HOBBS          PTSUNNY   50  27  40 SW12      29.88R


$$


USA.gov is the U.S. government's official web portal to all federal, state and local government web resources and services.